Content
SEND FEEDBACK

Daily
Averages
Monthly
Summary
Spain

MÁLAGA, SPAIN


Home > Europe > Spain
Elevation: 23 feet     Latitude: 36 40N     Longitude: 004 29W

WEATHER
 
SELECT A DAY
Number of Records: 318,363;   Date Range: 7/1/96 - 7/29/14
 
SHARE

PRINT THIS DATA

[ ← Previous Day ]
WEATHER ALMANAC - JANUARY 18, 2013
[ Next Day → ]
[ °C ]   °F
Weather ElementAverageHighLow
Temperature61.9 °F68 °F (1:00 pm)55.4 °F (1:30 am)
Dewpoint53.1 °F57.2 °F (1:00 pm)49 °F (1:00 am)
Humidity72.8 %82 % (1:30 am)57 % (1:00 pm)
Barometer29.96 in30.06 in (12:30 am)29.77 in (11:30 pm)
Wind Speed2.6 mph10.4 mph (9:00 am)
Weather ElementAverage
Visibility6.9 mi
Wind DirectionSE (133.3 °)

Weather ElementTotal
Precipitation---
Heating Degree Days3.3 (Base 65)
Growing Degree Days11.7 (Base 50)
Averaged from 50 records on January 18, 2013
WEATHER CONDITIONS BREAKOUT
WIND DIRECTION BREAKOUT
WEATHER BY HOUR - JANUARY 18, 2013
[ °C ]   °F
Local TimeTemperatureDewpointHumidityBarometerVisibilityWind DirectionWind SpeedGust SpeedPrecipitationEventsConditions
12:30 AM57.2 °F50.0 °F77 %30.06 in6.2 miVariable1.2 mphScattered Clouds
1:00 AM57.0 °F49.0 °F67 %30.06 in19.0 miCalmPartly Cloudy
1:00 AM57.2 °F50.0 °F77 %30.06 in6.2 miCalmScattered Clouds
1:30 AM55.4 °F50.0 °F82 %30.04 in6.2 miCalmScattered Clouds
2:00 AM55.4 °F50.0 °F82 %30.04 in6.2 miNW (320°)1.2 mphScattered Clouds
2:30 AM55.4 °F50.0 °F82 %30.04 in6.2 miCalmScattered Clouds
3:00 AM57.2 °F50.0 °F77 %30.04 in6.2 miCalmScattered Clouds
3:30 AM57.2 °F51.8 °F82 %30.04 in6.2 miWNW (290°)5.8 mphScattered Clouds
4:00 AM60.8 °F51.8 °F72 %30.04 in6.2 miWNW (290°)8.1 mphScattered Clouds
4:30 AM60.8 °F51.8 °F72 %30.04 in6.2 miWNW (300°)5.8 mphScattered Clouds
5:00 AM60.8 °F51.8 °F72 %30.04 in6.2 miNW (310°)6.9 mphScattered Clouds
5:30 AM59.0 °F51.8 °F77 %30.04 in6.2 miWNW (300°)1.2 mphScattered Clouds
6:00 AM60.8 °F51.8 °F72 %30.01 in6.2 miCalmScattered Clouds
6:30 AM60.8 °F53.6 °F77 %30.04 in6.2 miCalmScattered Clouds
7:00 AM62.0 °F53.0 °F63 %30.03 in19.0 miCalmPartly Cloudy
7:00 AM59.0 °F51.8 °F77 %30.01 in6.2 miCalmScattered Clouds
7:30 AM60.8 °F53.6 °F77 %30.04 in6.2 miCalmScattered Clouds
8:00 AM60.8 °F53.6 °F77 %30.04 in6.2 miNorth (350°)8.1 mphScattered Clouds
8:30 AM59.0 °F53.6 °F82 %30.01 in6.2 miNW (320°)6.9 mphMostly Cloudy
9:00 AM60.8 °F53.6 °F77 %30.01 in6.2 miNNW (340°)10.4 mphMostly Cloudy
9:30 AM60.8 °F53.6 °F77 %30.01 in6.2 miVariable2.3 mphMostly Cloudy
10:00 AM62.6 °F55.4 °F77 %30.01 in6.2 miCalmMostly Cloudy
10:30 AM62.6 °F55.4 °F77 %30.01 in6.2 miSE (140°)1.2 mphMostly Cloudy
11:00 AM62.6 °F55.4 °F77 %30.01 in6.2 miVariable2.3 mphMostly Cloudy
11:30 AM64.4 °F55.4 °F73 %30.01 in6.2 miVariable1.2 mphMostly Cloudy
12:00 PM64.4 °F55.4 °F73 %30.01 in6.2 miVariable1.2 mphMostly Cloudy
12:30 PM66.2 °F55.4 °F68 %29.98 in6.2 miCalmMostly Cloudy
1:00 PM68.0 °F56.0 °F57 %29.98 in16.0 miNW (320°)3.5 mphRainLight Rain
1:00 PM68.0 °F57.2 °F68 %29.98 in6.2 miNW (320°)3.5 mphRainLight Rain
1:30 PM68.0 °F55.4 °F64 %29.95 in6.2 miNW (320°)5.8 mphMostly Cloudy
2:00 PM68.0 °F55.4 °F64 %29.95 in6.2 miNW (310°)8.1 mphMostly Cloudy
2:30 PM68.0 °F55.4 °F64 %29.92 in6.2 miNW (320°)4.6 mphMostly Cloudy
3:00 PM66.2 °F53.6 °F64 %29.92 in6.2 miVariable2.3 mphMostly Cloudy
3:30 PM68.0 °F53.6 °F60 %29.92 in6.2 miVariable2.3 mphMostly Cloudy
4:00 PM66.2 °F53.6 °F64 %29.89 in6.2 miNNW (330°)5.8 mphMostly Cloudy
4:30 PM66.2 °F53.6 °F64 %29.89 in6.2 miNNW (330°)5.8 mphMostly Cloudy
5:00 PM66.2 °F53.6 °F64 %29.89 in6.2 miVariable2.3 mphMostly Cloudy
5:30 PM64.4 °F55.4 °F73 %29.89 in6.2 miCalmMostly Cloudy
6:00 PM64.4 °F53.6 °F68 %29.89 in6.2 miNW (320°)4.6 mphMostly Cloudy
6:30 PM64.4 °F51.8 °F64 %29.86 in6.2 miNNW (330°)4.6 mphMostly Cloudy
7:00 PM64.4 °F51.8 °F64 %29.86 in6.2 miNNW (340°)4.6 mphMostly Cloudy
7:30 PM62.6 °F51.8 °F68 %29.86 in6.2 miCalmMostly Cloudy
8:00 PM60.8 °F51.8 °F72 %29.86 in6.2 miCalmMostly Cloudy
8:30 PM60.8 °F53.6 °F77 %29.86 in6.2 miSSW (200°)2.3 mphMostly Cloudy
9:00 PM60.8 °F53.6 °F77 %29.86 in6.2 miCalmMostly Cloudy
9:30 PM60.8 °F53.6 °F77 %29.83 in6.2 miCalmMostly Cloudy
10:00 PM59.0 °F53.6 °F82 %29.83 in6.2 miVariable1.2 mphMostly Cloudy
10:30 PM59.0 °F53.6 °F82 %29.80 in6.2 miVariable1.2 mphMostly Cloudy
11:00 PM59.0 °F53.6 °F82 %29.80 in6.2 miCalmMostly Cloudy
11:30 PM60.8 °F53.6 °F77 %29.77 in6.2 miVariable2.3 mphMostly Cloudy
Hourly data recorded from LEMG, located miles away from Málaga, Spain







STORIES FROM OUR PARTNERS